SCP
0 0 0 0 0 0 0 0 0 0 0 0 0 0 0 0 0 0 0 0 0 0 0 0 0 0 0 0 0 0 0 0 0 0 0 0 0 0 0 0 0 0 0 0 0 0 0 0 0 0 0 0 0 0
0 0 0 0 0 0 0 0 0 0 0 0 0 0 0 0 0 0 0 0 0 0 0 0 0 0 0 0 0 0 0 0 0 0 0 0 0 0 0 0 0 0 0 0 0 0 0 0 0 0 0 0 0 0
0 0 0 0 0 0 0 0 0 0 0 0 0 0 0 0 0 0 0 0 0 0 0 0 0 0 0 0 0 0 0 0 0 0 0 0 0 0 0 0 0 0 0 0 0 0 0 0 0 0 0 0 0 0
0 0 0 0 0 0 0 0 0 0 0 0 0 0 0 0 0 0 0 0 0 0 0 0 0 0 0 0 0 0 0 0 0 0 0 0 0 0 0 0 0 0 0 0 0 0 0 0 0 0 0 0 0 0
0 0 0 0 0 0 0 0 0 0 0 0 0 0 0 0 0 0 0 0 0 0 0 0 0 0 0 0 0 0 0 0 0 0 0 0 0 0 0 0 0 0 0 0 0 0 0 0 0 0 0 0 0 0
0 0 0 0 0 0 0 0 0 0 0 0 0 0 0 0 0 0 0 0 0 0 0 0 0 0 0 0 0 0 0 0 0 0 0 0 0 0 0 0 0 0 0 0 0 0 0 0 0 0 0 0 0 0
0 0 0 0 0 0 0 0 0 0 0 0 0 0 0 0 0 0 0 0 0 0 0 0 0 0 0 0 0 0 0 0 0 0 0 0 0 0 0 0 0 0 0 0 0 0 0 0 0 0 0 0 0 0
0 0 0 0 0 0 0 0 0 0 0 0 0 0 0 0 0 0 0 0 0 0 0 0 0 0 0 0 0 0 0 0 0 0 0 0 0 0 0 0 0 0 0 0 0 0 0 0 0 0 0 0 0 0
0 0 0 0 0 0 0 0 0 0 0 0 0 0 0 0 0 0 0 0 0 0 0 0 0 0 0 0 0 0 0 0 0 0 0 0 0 0 0 0 0 0 0 0 0 0 0 0 0 0 0 0 0 0
0 0 0 0 0 0 0 0 0 0 0 0 0 0 0 0 0 0 0 0 0 0 0 0 0 0 0 0 0 0 0 0 0 0 0 0 0 0 0 0 0 0 0 0 0 0 0 0 0 0 0 0 0 0
0 0 0 0 0 0 0 0 0 0 0 0 0 0 0 0 0 0 0 0 0 0 0 0 0 0 0 0 0 0 0 0 0 0 0 0 0 0 0 0 0 0 0 0 0 0 0 0 0 0 0 0 0 0
0 0 0 0 0 0 0 0 0 0 0 0 0 0 0 0 0 0 0 0 0 0 0 0 0 0 0 0 0 0 0 0 0 0 0 0 0 0 0 0 0 0 0 0 0 0 0 0 0 0 0 0 0 0
0 0 0 0 0 0 0 0 0 0 0 0 0 0 0 0 0 0 0 0 0 0 0 0 0 0 0 0 0 0 0 0 0 0 0 0 0 0 0 0 0 0 0 0 0 0 0 0 0 0 0 0 0 0
0 0 0 0 0 0 0 0 0 0 0 0 0 0 0 0 0 0 0 0 0 0 0 0 0 0 0 0 0 0 0 0 0 0 0 0 0 0 0 0 0 0 0 0 0 0 0 0 0 0 0 0 0 0
0 0 0 0 0 0 0 0 0 0 0 0 0 0 0 0 0 0 0 0 0 -0 -0 -0 -0 -0 0 0 0 0 0 0 0 0 0 0 0 0 0 0 0 0 0 0 0 0 0 0 0 0 0 0 0 0
0 0 0 0 0 0 0 0 0 0 -0 0 0 0 0 0 0 0 0 0 0 -0 -0 0 0 0 0 0 0 0 0 0 0 0 0 0 0 0 0 0 0 0 0 0 0 0 0 0 0 0 0 0 0 0
0 0 0 0 0 0 0 0 0 0 0 0 0 0 0 0 0 0 0 0 0 0 0 0 0 0 0 0 0 0 0 0 0 0 0 0 0 0 0 0 0 0 0 0 0 0 0 0 0 0 0 0 0 0
0 0 0 0 0 0 0 0 0 0 0 0 0 0 0 0 0 0 0 0 0 0 0 0 0 0 0 0 0 0 0 0 0 0 0 0 0 0 0 0 0 0 0 0 0 0 0 0 0 0 0 0 0 0
0 0 0 0 0 0 0 0 0 0 0 0 0 0 0 0 0 0 0 0 0 0 0 0 0 0 0 0 0 0 0 0 0 0 0 0 0 0 0 0 0 0 0 0 0 0 0 0 0 0 0 0 0 0
0 0 0 0 0 0 0 0 0 0 0 0 0 0 0 0 0 0 0 0 0 0 0 0 0 0 0 0 0 0 0 0 0 0 0 0 0 0 0 0 0 0 0 0 0 0 0 0 0 0 0 0 0 0
0 0 0 0 0 0 0 0 0 0 0 0 0 0 0 0 0 0 0 0 0 0 0 0 0 0 0 0 0 0 0 0 0 0 0 0 0 0 0 0 0 0 0 0 0 0 0 0 0 0 0 0 0 0
0 0 0 0 0 0 0 0 0 0 0 0 0 0 0 0 0 0 0 0 0 0 0 0 0 0 0 0 0 0 0 0 0 0 0 0 0 0 0 0 0 0 0 0 0 0 0 0 0 0 0 0 0 0
0 0 0 0 0 0 0 0 0 0 0 0 0 0 0 0 0 0 0 0 0 0 0 0 0 0 0 0 0 0 0 0 0 0 0 0 0 0 0 0 0 0 0 0 0 0 0 0 0 0 0 0 0 0
0 0 0 0 0 0 0 0 0 0 0 0 0 0 0 0 0 0 0 0 0 0 0 0 0 0 0 0 0 0 0 0 0 0 0 0 0 0 0 0 0 0 0 0 0 0 0 0 0 0 0 0 0 0
0 0 0 0 0 0 0 0 0 0 0 0 0 0 0 0 0 0 0 0 0 0 0 0 0 0 0 0 0 0 0 0 0 0 0 0 0 0 0 0 0 0 0 0 0 0 0 0 0 0 0 0 0 0
0 0 0 0 0 0 0 0 0 0 0 0 0 0 0 0 0 0 0 0 0 0 0 0 0 0 0 0 0 0 0 -0 -0 -0 -0 -0 -0 0 0 0 0 0 0 0 0 0 0 0 0 0 0 0 0 0
0 0 0 0 0 0 0 0 0 0 0 0 0 0 0 0 0 0 0 0 0 0 0 0 0 0 0 0 0 -0 -0 -0 -0 -0 -0 -0 -0 -0 -0 -0 0 0 0 0 0 0 0 -0 -0 -0 -0 -0 0 0
0 0 0 0 0 0 0 0 0 0 0 0 0 0 0 0 0 0 0 0 0 0 0 0 0 0 0 -0 -0 -0 -0 0 0 -0 -0 -0 -0 -0 0 -0 0 -0 0 0 0 0 -0 -0 -0 -0 -0 -0 0 0
0 0 0 0 0 0 0 0 0 0 0 0 0 0 0 0 0 0 0 0 0 0 0 0 0 0 0 0 -0 -0 -0 -0 -0 0 0 0 0 0 0 0 0 0 0 0 -0 -0 -0 -0 -0 -0 -0 0 0 0
0 0 0 0 0 0 0 0 0 0 0 0 0 0 0 0 0 0 0 0 0 0 0 0 0 0 0 0 0 0 -0 -0 -0 -0 -0 -0 0 0 0 0 0 0 0 0 -0 -0 -0 -0 -0 -0 -0 0 0 0
0 0 0 0 0 0 0 0 0 0 0 0 0 0 0 0 0 0 0 0 0 0 0 0 0 0 0 0 0 0 0 -0 -0 -0 -0 -0 -0 -0 -0 -0 0 0 0 0 0 -0 -0 -0 -0 -0 -0 -0 -0 -0
0 0 0 0 0 0 0 0 0 0 0 0 0 0 0 0 0 0 0 0 0 0 0 0 0 0 0 0 0 0 0 0 0 -0 -0 -0 -0 -0 -0 -0 -0 -0 -0 0 -0 -0 -0 -0 0 -0 0 -0 -0 -0
0 0 0 0 0 0 0 0 0 0 0 0 0 0 0 0 0 0 0 0 0 0 0 0 0 0 0 0 0 0 0 0 0 -0 -0 -0 -0 -0 -0 -0 -0 -0 -0 -0 -0 -0 0 -0 0 0 0 0 0 0
Wind_Speed_500mb
25 28 30 34 37 37 34 34 36 36 34 34 33 31 27 27 26 35 36 33 31 22 47 48 45 38 21 26 9 16 6 6 6 7 8 8 8 11 3 7 13 17 19 10 7 6 23 32 16 15 16 10 12 20
31 33 34 32 35 37 39 40 40 40 39 38 36 34 33 33 32 35 46 40 41 59 37 48 55 61 62 59 39 39 15 17 28 5 2 6 6 1 8 7 9 7 16 11 26 20 14 39 21 34 36 28 43 52
29 31 33 35 40 42 41 41 40 40 39 39 38 37 37 37 35 40 49 49 47 45 58 66 69 40 47 69 72 43 36 42 27 21 20 7 10 9 9 14 7 9 21 8 5 20 52 65 76 76 83 79 78 74
35 36 35 36 37 38 39 40 41 41 41 41 42 42 42 42 43 45 54 58 54 32 17 32 40 58 52 49 58 73 77 36 43 46 19 7 6 26 9 8 13 13 17 17 27 36 73 65 74 90 82 69 65 58
33 32 32 35 38 39 41 43 43 43 44 45 46 45 45 45 47 51 61 68 67 59 16 20 46 55 54 51 62 59 75 74 38 19 12 11 15 10 10 3 18 28 37 23 30 54 54 61 63 66 63 74 79 78
40 41 43 44 46 47 47 49 50 52 53 55 55 51 49 49 49 54 57 71 82 78 35 13 17 32 44 67 75 70 73 79 60 28 21 23 29 27 9 16 18 57 84 84 79 89 84 89 97 89 83 86 82 80
28 31 34 34 37 39 44 44 43 43 44 45 46 46 49 56 57 59 22 7 14 45 31 12 13 11 37 47 60 61 70 45 46 37 31 38 26 34 14 36 42 76 72 77 76 82 66 79 68 80 71 66 58 54
29 29 35 40 43 45 44 48 51 53 55 58 61 57 52 49 55 70 84 77 64 42 28 8 8 7 24 20 22 43 35 41 32 28 10 11 16 24 19 21 79 80 85 71 69 66 79 92 84 83 83 82 72 64
33 35 34 36 35 35 37 37 38 38 40 46 48 49 54 61 67 65 64 66 70 72 15 13 17 23 23 19 17 17 20 6 13 6 7 14 12 16 16 58 75 84 42 55 74 86 79 70 87 79 72 66 62 49
34 34 36 39 41 41 40 41 43 42 47 47 47 29 12 12 35 48 39 26 30 46 47 18 37 17 25 29 19 14 13 7 7 9 12 8 18 31 66 84 61 67 71 61 69 75 61 68 66 59 62 49 44 61
43 45 44 46 47 48 47 47 46 45 48 41 13 19 23 20 39 12 12 8 8 4 9 11 33 19 25 7 10 26 8 6 7 6 10 3 7 7 30 38 44 49 50 48 48 59 64 63 63 52 46 59 40 25
48 52 53 51 52 51 48 50 50 51 46 30 26 44 44 13 13 4 7 6 1 9 9 6 9 4 4 13 7 12 8 5 11 8 4 6 5 35 44 48 48 47 48 48 40 41 37 32 34 39 39 25 19 17
53 55 58 56 53 51 52 59 54 54 48 38 14 12 6 10 7 10 8 7 4 5 2 4 3 6 4 2 6 2 6 7 9 3 6 6 14 42 46 50 47 43 44 44 42 37 38 28 16 17 23 21 10 10
59 56 50 43 46 53 53 41 45 42 36 21 20 9 10 7 8 8 8 8 6 10 11 4 2 4 3 2 2 4 3 3 3 6 10 4 28 41 44 47 50 52 49 48 46 41 36 31 22 16 16 23 22 20
55 49 40 41 41 20 10 13 22 18 15 6 9 10 10 14 7 6 10 9 10 9 13 5 5 10 4 4 5 7 4 8 10 5 4 24 42 46 53 52 50 51 55 56 54 54 47 41 34 25 24 31 35 35
45 34 25 23 22 25 29 29 26 20 6 10 13 8 6 1 9 4 10 8 10 11 9 10 2 3 9 5 6 13 8 10 1 5 27 34 42 54 61 54 55 55 59 59 55 55 51 49 47 43 40 38 42 45
35 12 15 24 29 33 22 18 13 9 12 10 4 8 14 4 6 9 13 16 19 6 5 5 9 15 3 4 5 8 6 4 20 30 32 45 52 61 57 54 57 69 71 65 61 57 54 50 49 48 48 42 44 45
37 33 23 31 38 32 26 11 11 9 6 5 6 9 9 13 10 11 21 22 13 8 14 6 15 4 6 4 4 5 13 35 31 34 42 52 56 50 54 65 64 63 65 65 61 59 54 52 50 47 46 45 47 43
25 29 32 35 27 12 7 8 9 3 4 6 5 12 6 6 15 20 22 17 6 6 2 10 10 5 4 7 14 29 33 35 48 55 57 50 50 58 62 61 62 62 62 62 59 56 52 47 46 44 44 44 47 40
14 24 24 18 13 7 7 3 2 5 6 4 9 8 6 6 11 15 27 22 20 12 15 8 3 11 14 29 30 32 37 41 46 55 58 61 61 57 52 54 58 58 58 54 49 46 48 44 34 35 38 42 45 42
22 22 17 11 5 5 7 6 7 7 5 5 5 5 4 11 15 17 21 20 18 12 6 10 23 26 24 21 21 24 28 31 35 39 50 58 51 47 56 60 56 52 49 47 45 48 46 46 42 40 41 40 38 37
4 2 7 8 6 7 9 12 5 4 3 5 5 7 9 6 10 15 10 22 10 9 12 21 25 26 26 25 24 24 30 31 27 30 34 39 48 55 61 57 56 54 48 44 48 58 56 48 42 42 41 38 33 30
11 8 8 9 6 8 4 10 4 10 7 6 4 7 6 6 8 5 10 9 8 15 19 19 19 21 20 23 26 30 35 36 34 36 38 41 45 47 50 46 45 46 48 50 53 51 49 43 38 39 35 29 26 22
10 8 10 10 16 3 6 10 8 9 6 8 7 5 6 8 10 9 4 6 14 20 23 23 21 26 29 33 38 37 39 36 34 33 35 43 53 56 54 53 47 40 40 50 51 47 44 39 36 35 32 28 22 18
6 17 12 11 14 10 12 11 12 10 4 4 6 7 6 10 5 5 3 6 22 25 23 22 23 26 32 35 39 40 39 40 38 36 35 40 50 60 64 63 61 54 56 56 53 49 44 42 41 37 32 27 23 20
12 18 9 4 6 7 3 5 2 1 2 7 3 8 7 5 7 1 2 10 12 16 17 19 21 22 26 29 34 40 43 42 40 38 36 41 45 50 59 66 73 71 63 57 54 52 46 43 45 41 35 28 24 22
10 8 10 13 7 3 5 4 3 5 4 1 5 7 6 5 4 5 2 10 7 8 10 12 16 19 23 26 27 31 33 37 37 32 36 39 38 52 57 58 64 64 64 59 53 47 45 46 46 42 36 29 26 24
10 16 5 27 5 6 6 3 3 2 5 3 3 5 6 12 8 2 1 2 3 3 5 11 16 18 22 26 31 38 42 44 44 47 36 49 54 56 56 59 61 61 59 56 54 51 42 44 42 37 37 33 28 24
9 25 23 11 6 3 2 4 1 5 6 2 4 4 4 4 3 4 5 5 7 4 8 8 13 17 19 24 31 39 47 57 64 69 68 69 72 70 65 63 64 64 64 62 53 48 45 40 37 36 33 30 27 24
16 33 11 7 3 4 2 8 12 24 27 19 11 5 7 7 8 10 9 6 4 2 9 15 20 27 34 39 41 40 45 49 52 56 60 62 63 64 64 64 63 61 61 60 59 55 47 43 38 34 33 31 29 27
16 11 8 6 8 6 14 31 29 26 10 6 16 11 11 11 12 9 6 6 8 11 11 17 24 32 41 47 53 59 62 56 53 49 49 52 55 58 58 58 58 57 53 53 54 52 51 48 45 42 39 37 35 33
12 8 12 6 9 14 21 24 16 8 8 1 7 9 14 10 7 11 9 10 4 7 16 29 40 45 54 57 58 57 59 61 59 59 58 56 56 56 57 55 54 53 50 46 45 46 46 44 43 42 41 39 37 35
12 12 9 10 11 10 18 28 12 16 7 6 2 8 11 7 6 12 18 12 8 12 27 42 49 62 65 66 68 66 59 59 61 59 57 51 49 50 52 51 50 50 48 44 40 40 41 41 41 40 38 38 37 37
Wind_Direction_500mb
280 281 283 284 284 281 283 284 283 282 283 280 275 269 265 267 268 265 274 272 258 247 257 248 245 225 193 188 155 158 89 206 95 166 162 214 183 220 135 193 180 169 170 195 173 177 274 200 132 195 223 296 254 251
275 279 281 285 287 284 280 279 278 276 277 276 274 270 264 263 259 257 261 272 276 243 250 266 267 267 254 242 229 193 212 163 186 122 243 102 218 171 170 245 164 251 196 190 187 207 248 193 214 234 262 269 279 281
282 282 282 283 279 279 277 279 281 281 279 278 278 273 270 265 259 254 257 260 262 253 267 256 262 281 258 245 242 221 222 224 205 202 169 192 226 137 176 234 193 256 220 238 108 226 245 253 259 265 273 276 289 289
278 279 280 284 286 287 288 287 286 287 284 281 279 276 273 269 266 261 254 257 254 246 254 266 264 256 263 250 242 236 233 226 228 222 206 192 189 194 222 240 198 194 149 238 257 271 275 269 265 268 275 281 285 279
284 287 287 286 286 285 284 284 284 285 285 285 284 282 278 275 269 266 263 258 254 238 262 268 278 262 254 251 241 234 228 224 218 197 209 225 191 209 221 196 235 197 238 238 255 256 261 277 281 280 277 280 282 284
276 279 281 281 280 281 280 280 278 277 276 275 273 272 272 271 268 267 266 260 251 243 251 265 272 267 243 235 237 237 229 225 218 220 230 231 227 193 238 249 222 239 242 241 253 262 267 276 283 280 276 280 282 281
285 285 285 286 283 281 282 282 281 281 282 280 277 273 270 265 261 254 244 249 204 220 228 261 266 260 231 223 218 223 229 214 215 231 238 237 215 207 243 254 263 259 262 262 265 273 274 270 272 284 284 283 278 276
302 301 298 293 289 290 291 289 286 288 288 286 283 283 280 276 272 261 251 255 263 209 218 228 257 190 174 173 192 204 211 214 220 229 214 195 235 217 249 256 262 269 270 273 274 277 271 283 280 279 283 281 277 276
300 300 300 300 304 308 308 306 304 302 300 295 295 287 283 270 266 267 264 261 249 234 233 217 243 264 187 186 184 181 194 188 219 234 218 190 209 220 210 248 260 266 287 296 300 298 293 281 284 286 282 274 275 278
303 298 297 297 298 295 298 298 297 298 304 293 291 299 264 225 250 266 269 235 219 229 226 244 246 235 198 178 194 151 186 223 218 227 155 210 247 257 248 264 291 294 298 304 297 292 293 290 287 288 284 278 280 291
307 306 307 303 296 292 291 292 290 291 290 290 251 233 247 296 316 253 256 225 243 292 237 253 229 229 211 159 189 201 185 183 208 219 187 205 280 275 323 323 322 314 306 304 299 290 291 284 281 282 278 286 277 260
296 296 294 295 294 294 294 295 288 290 279 266 270 281 296 272 224 214 229 319 192 237 339 359 336 284 212 195 181 173 183 160 229 125 162 246 254 354 356 354 355 350 341 331 320 314 312 304 288 288 286 268 268 243
301 298 296 293 287 290 293 289 285 274 275 257 217 200 243 219 233 203 236 281 305 259 281 6 325 307 331 147 76 134 185 218 118 189 229 217 358 1 358 354 353 358 359 354 350 336 322 309 313 296 289 278 238 235
296 295 295 300 303 295 296 289 287 291 260 191 178 221 187 255 236 195 184 202 254 228 212 256 343 304 253 155 115 224 72 152 213 225 230 23 356 350 352 351 351 352 353 351 352 353 344 335 327 303 279 278 272 278
295 292 287 295 307 293 310 329 290 308 342 289 250 217 212 226 231 228 248 270 285 270 225 188 201 182 193 219 176 107 159 241 213 245 24 345 343 341 344 342 339 341 345 343 343 340 338 335 325 309 286 273 273 271
297 277 279 285 271 301 327 329 319 327 289 226 245 300 279 24 270 326 343 293 329 290 245 260 223 157 234 190 138 215 160 220 111 337 327 332 334 334 338 332 329 328 330 331 331 327 326 325 323 316 309 302 295 286
303 250 271 283 299 319 313 302 309 220 229 228 267 18 9 83 61 24 3 350 331 291 234 194 209 223 101 181 196 22 37 10 332 319 321 326 327 326 330 322 320 320 319 320 319 317 318 318 315 314 312 307 294 287
298 309 297 297 301 301 290 258 204 231 240 317 16 13 38 36 17 21 354 340 335 329 338 344 332 353 26 16 62 12 320 315 315 317 320 323 327 328 320 317 319 319 316 314 313 312 312 311 309 309 306 302 294 291
305 301 289 294 299 275 244 205 204 188 81 52 43 21 55 59 45 28 8 357 46 56 30 41 53 43 343 12 330 323 321 320 316 317 319 326 328 327 327 328 326 324 320 318 317 315 313 309 307 309 305 300 296 291
271 278 281 282 278 225 203 91 74 67 79 60 39 34 60 39 28 29 30 47 69 56 47 46 52 334 311 316 324 319 317 319 321 321 321 329 334 334 337 335 331 326 325 325 323 322 320 314 312 309 306 304 303 301
286 278 295 297 203 136 86 63 65 71 89 95 54 67 76 62 42 35 29 32 60 39 37 11 344 344 345 339 335 327 325 329 328 320 320 324 338 341 341 343 337 332 333 338 339 340 334 328 326 321 314 307 302 293
266 99 103 85 86 80 77 37 69 59 64 80 61 39 49 42 25 20 34 46 66 39 12 349 350 352 352 360 357 358 354 352 353 350 350 348 346 347 346 347 344 340 341 343 338 333 332 332 327 325 320 313 305 298
118 100 69 46 89 55 56 25 62 27 69 356 26 43 17 33 23 45 72 67 67 10 3 1 2 12 12 17 17 15 13 9 8 4 1 360 359 359 354 355 353 343 341 345 343 339 336 335 330 329 327 321 314 308
99 65 41 49 27 32 8 39 37 25 53 32 38 10 356 356 1 68 80 83 9 7 15 20 21 28 39 36 27 19 11 11 14 18 12 9 6 8 9 7 5 357 347 346 347 350 352 348 343 340 335 331 328 322
87 17 27 360 22 36 29 8 353 37 32 321 47 347 333 348 63 60 124 10 11 10 23 44 53 45 40 36 31 29 22 15 9 8 13 12 6 5 8 11 11 7 1 351 351 350 353 354 353 348 343 336 332 328
70 17 50 2 352 64 206 41 31 6 125 2 275 320 352 74 63 174 230 0 11 12 28 36 31 32 34 25 20 20 18 18 16 21 21 20 14 2 1 0 359 6 4 357 349 346 346 350 351 352 349 346 340 334
56 341 23 21 350 3 58 92 90 94 71 55 284 7 53 73 232 246 152 355 36 32 16 14 17 15 16 19 22 21 19 22 21 14 22 22 20 19 15 5 356 359 2 359 356 351 349 350 350 350 350 350 345 342
67 30 7 327 9 14 131 61 70 164 232 121 3 24 166 190 217 195 227 1 1 25 48 54 45 42 34 27 19 13 10 13 13 18 22 21 22 16 11 12 9 6 5 7 3 1 355 349 342 342 342 344 346 345
28 358 350 4 340 326 349 132 264 8 346 270 168 238 234 197 269 233 231 187 163 80 91 72 45 43 46 41 25 15 9 6 6 7 8 3 2 3 3 2 1 2 2 4 8 7 6 358 351 347 351 354 358 358
358 349 345 339 52 283 16 348 319 311 301 268 250 202 162 150 132 118 107 99 119 136 20 14 15 12 10 6 2 4 5 1 359 356 353 351 348 348 353 353 353 352 354 357 0 4 7 8 11 13 15 15 15 14
329 328 316 289 272 313 322 327 330 328 323 274 212 193 162 147 138 117 111 90 96 96 69 40 24 12 6 359 354 348 345 346 342 339 335 333 334 336 339 344 346 344 343 347 352 357 1 6 10 13 16 18 20 19
319 354 340 315 294 319 340 343 338 349 3 38 177 170 168 179 212 214 198 172 213 301 345 357 355 347 346 344 341 337 331 327 325 322 320 320 323 326 327 331 333 336 337 336 340 347 353 357 3 8 12 15 16 15
312 335 325 302 305 337 348 348 9 7 15 31 38 202 198 218 254 195 196 221 292 357 358 347 344 342 338 332 328 325 320 315 313 311 308 304 306 314 319 324 329 329 330 329 328 332 338 344 351 357 1 6 10 11
Wind_Speed_850mb
25 28 30 34 37 37 34 34 36 36 34 34 33 31 27 27 26 35 36 33 31 22 47 48 45 38 21 26 9 16 6 6 6 7 8 8 8 11 3 7 13 17 19 10 7 6 23 32 16 15 16 10 12 20
31 33 34 32 35 37 39 40 40 40 39 38 36 34 33 33 32 35 46 40 41 59 37 48 55 61 62 59 39 39 15 17 28 5 2 6 6 1 8 7 9 7 16 11 26 20 14 39 21 34 36 28 43 52
29 31 33 35 40 42 41 41 40 40 39 39 38 37 37 37 35 40 49 49 47 45 58 66 69 40 47 69 72 43 36 42 27 21 20 7 10 9 9 14 7 9 21 8 5 20 52 65 76 76 83 79 78 74
35 36 35 36 37 38 39 40 41 41 41 41 42 42 42 42 43 45 54 58 54 32 17 32 40 58 52 49 58 73 77 36 43 46 19 7 6 26 9 8 13 13 17 17 27 36 73 65 74 90 82 69 65 58
33 32 32 35 38 39 41 43 43 43 44 45 46 45 45 45 47 51 61 68 67 59 16 20 46 55 54 51 62 59 75 74 38 19 12 11 15 10 10 3 18 28 37 23 30 54 54 61 63 66 63 74 79 78
40 41 43 44 46 47 47 49 50 52 53 55 55 51 49 49 49 54 57 71 82 78 35 13 17 32 44 67 75 70 73 79 60 28 21 23 29 27 9 16 18 57 84 84 79 89 84 89 97 89 83 86 82 80
28 31 34 34 37 39 44 44 43 43 44 45 46 46 49 56 57 59 22 7 14 45 31 12 13 11 37 47 60 61 70 45 46 37 31 38 26 34 14 36 42 76 72 77 76 82 66 79 68 80 71 66 58 54
29 29 35 40 43 45 44 48 51 53 55 58 61 57 52 49 55 70 84 77 64 42 28 8 8 7 24 20 22 43 35 41 32 28 10 11 16 24 19 21 79 80 85 71 69 66 79 92 84 83 83 82 72 64
33 35 34 36 35 35 37 37 38 38 40 46 48 49 54 61 67 65 64 66 70 72 15 13 17 23 23 19 17 17 20 6 13 6 7 14 12 16 16 58 75 84 42 55 74 86 79 70 87 79 72 66 62 49
34 34 36 39 41 41 40 41 43 42 47 47 47 29 12 12 35 48 39 26 30 46 47 18 37 17 25 29 19 14 13 7 7 9 12 8 18 31 66 84 61 67 71 61 69 75 61 68 66 59 62 49 44 61
43 45 44 46 47 48 47 47 46 45 48 41 13 19 23 20 39 12 12 8 8 4 9 11 33 19 25 7 10 26 8 6 7 6 10 3 7 7 30 38 44 49 50 48 48 59 64 63 63 52 46 59 40 25
48 52 53 51 52 51 48 50 50 51 46 30 26 44 44 13 13 4 7 6 1 9 9 6 9 4 4 13 7 12 8 5 11 8 4 6 5 35 44 48 48 47 48 48 40 41 37 32 34 39 39 25 19 17
53 55 58 56 53 51 52 59 54 54 48 38 14 12 6 10 7 10 8 7 4 5 2 4 3 6 4 2 6 2 6 7 9 3 6 6 14 42 46 50 47 43 44 44 42 37 38 28 16 17 23 21 10 10
59 56 50 43 46 53 53 41 45 42 36 21 20 9 10 7 8 8 8 8 6 10 11 4 2 4 3 2 2 4 3 3 3 6 10 4 28 41 44 47 50 52 49 48 46 41 36 31 22 16 16 23 22 20
55 49 40 41 41 20 10 13 22 18 15 6 9 10 10 14 7 6 10 9 10 9 13 5 5 10 4 4 5 7 4 8 10 5 4 24 42 46 53 52 50 51 55 56 54 54 47 41 34 25 24 31 35 35
45 34 25 23 22 25 29 29 26 20 6 10 13 8 6 1 9 4 10 8 10 11 9 10 2 3 9 5 6 13 8 10 1 5 27 34 42 54 61 54 55 55 59 59 55 55 51 49 47 43 40 38 42 45
35 12 15 24 29 33 22 18 13 9 12 10 4 8 14 4 6 9 13 16 19 6 5 5 9 15 3 4 5 8 6 4 20 30 32 45 52 61 57 54 57 69 71 65 61 57 54 50 49 48 48 42 44 45
37 33 23 31 38 32 26 11 11 9 6 5 6 9 9 13 10 11 21 22 13 8 14 6 15 4 6 4 4 5 13 35 31 34 42 52 56 50 54 65 64 63 65 65 61 59 54 52 50 47 46 45 47 43
25 29 32 35 27 12 7 8 9 3 4 6 5 12 6 6 15 20 22 17 6 6 2 10 10 5 4 7 14 29 33 35 48 55 57 50 50 58 62 61 62 62 62 62 59 56 52 47 46 44 44 44 47 40
14 24 24 18 13 7 7 3 2 5 6 4 9 8 6 6 11 15 27 22 20 12 15 8 3 11 14 29 30 32 37 41 46 55 58 61 61 57 52 54 58 58 58 54 49 46 48 44 34 35 38 42 45 42
22 22 17 11 5 5 7 6 7 7 5 5 5 5 4 11 15 17 21 20 18 12 6 10 23 26 24 21 21 24 28 31 35 39 50 58 51 47 56 60 56 52 49 47 45 48 46 46 42 40 41 40 38 37
4 2 7 8 6 7 9 12 5 4 3 5 5 7 9 6 10 15 10 22 10 9 12 21 25 26 26 25 24 24 30 31 27 30 34 39 48 55 61 57 56 54 48 44 48 58 56 48 42 42 41 38 33 30
11 8 8 9 6 8 4 10 4 10 7 6 4 7 6 6 8 5 10 9 8 15 19 19 19 21 20 23 26 30 35 36 34 36 38 41 45 47 50 46 45 46 48 50 53 51 49 43 38 39 35 29 26 22
10 8 10 10 16 3 6 10 8 9 6 8 7 5 6 8 10 9 4 6 14 20 23 23 21 26 29 33 38 37 39 36 34 33 35 43 53 56 54 53 47 40 40 50 51 47 44 39 36 35 32 28 22 18
6 17 12 11 14 10 12 11 12 10 4 4 6 7 6 10 5 5 3 6 22 25 23 22 23 26 32 35 39 40 39 40 38 36 35 40 50 60 64 63 61 54 56 56 53 49 44 42 41 37 32 27 23 20
12 18 9 4 6 7 3 5 2 1 2 7 3 8 7 5 7 1 2 10 12 16 17 19 21 22 26 29 34 40 43 42 40 38 36 41 45 50 59 66 73 71 63 57 54 52 46 43 45 41 35 28 24 22
10 8 10 13 7 3 5 4 3 5 4 1 5 7 6 5 4 5 2 10 7 8 10 12 16 19 23 26 27 31 33 37 37 32 36 39 38 52 57 58 64 64 64 59 53 47 45 46 46 42 36 29 26 24
10 16 5 27 5 6 6 3 3 2 5 3 3 5 6 12 8 2 1 2 3 3 5 11 16 18 22 26 31 38 42 44 44 47 36 49 54 56 56 59 61 61 59 56 54 51 42 44 42 37 37 33 28 24
9 25 23 11 6 3 2 4 1 5 6 2 4 4 4 4 3 4 5 5 7 4 8 8 13 17 19 24 31 39 47 57 64 69 68 69 72 70 65 63 64 64 64 62 53 48 45 40 37 36 33 30 27 24
16 33 11 7 3 4 2 8 12 24 27 19 11 5 7 7 8 10 9 6 4 2 9 15 20 27 34 39 41 40 45 49 52 56 60 62 63 64 64 64 63 61 61 60 59 55 47 43 38 34 33 31 29 27
16 11 8 6 8 6 14 31 29 26 10 6 16 11 11 11 12 9 6 6 8 11 11 17 24 32 41 47 53 59 62 56 53 49 49 52 55 58 58 58 58 57 53 53 54 52 51 48 45 42 39 37 35 33
12 8 12 6 9 14 21 24 16 8 8 1 7 9 14 10 7 11 9 10 4 7 16 29 40 45 54 57 58 57 59 61 59 59 58 56 56 56 57 55 54 53 50 46 45 46 46 44 43 42 41 39 37 35
12 12 9 10 11 10 18 28 12 16 7 6 2 8 11 7 6 12 18 12 8 12 27 42 49 62 65 66 68 66 59 59 61 59 57 51 49 50 52 51 50 50 48 44 40 40 41 41 41 40 38 38 37 37
Wind_Direction_850mb
280 281 283 284 284 281 283 284 283 282 283 280 275 269 265 267 268 265 274 272 258 247 257 248 245 225 193 188 155 158 89 206 95 166 162 214 183 220 135 193 180 169 170 195 173 177 274 200 132 195 223 296 254 251
275 279 281 285 287 284 280 279 278 276 277 276 274 270 264 263 259 257 261 272 276 243 250 266 267 267 254 242 229 193 212 163 186 122 243 102 218 171 170 245 164 251 196 190 187 207 248 193 214 234 262 269 279 281
282 282 282 283 279 279 277 279 281 281 279 278 278 273 270 265 259 254 257 260 262 253 267 256 262 281 258 245 242 221 222 224 205 202 169 192 226 137 176 234 193 256 220 238 108 226 245 253 259 265 273 276 289 289
278 279 280 284 286 287 288 287 286 287 284 281 279 276 273 269 266 261 254 257 254 246 254 266 264 256 263 250 242 236 233 226 228 222 206 192 189 194 222 240 198 194 149 238 257 271 275 269 265 268 275 281 285 279
284 287 287 286 286 285 284 284 284 285 285 285 284 282 278 275 269 266 263 258 254 238 262 268 278 262 254 251 241 234 228 224 218 197 209 225 191 209 221 196 235 197 238 238 255 256 261 277 281 280 277 280 282 284
276 279 281 281 280 281 280 280 278 277 276 275 273 272 272 271 268 267 266 260 251 243 251 265 272 267 243 235 237 237 229 225 218 220 230 231 227 193 238 249 222 239 242 241 253 262 267 276 283 280 276 280 282 281
285 285 285 286 283 281 282 282 281 281 282 280 277 273 270 265 261 254 244 249 204 220 228 261 266 260 231 223 218 223 229 214 215 231 238 237 215 207 243 254 263 259 262 262 265 273 274 270 272 284 284 283 278 276
302 301 298 293 289 290 291 289 286 288 288 286 283 283 280 276 272 261 251 255 263 209 218 228 257 190 174 173 192 204 211 214 220 229 214 195 235 217 249 256 262 269 270 273 274 277 271 283 280 279 283 281 277 276
300 300 300 300 304 308 308 306 304 302 300 295 295 287 283 270 266 267 264 261 249 234 233 217 243 264 187 186 184 181 194 188 219 234 218 190 209 220 210 248 260 266 287 296 300 298 293 281 284 286 282 274 275 278
303 298 297 297 298 295 298 298 297 298 304 293 291 299 264 225 250 266 269 235 219 229 226 244 246 235 198 178 194 151 186 223 218 227 155 210 247 257 248 264 291 294 298 304 297 292 293 290 287 288 284 278 280 291
307 306 307 303 296 292 291 292 290 291 290 290 251 233 247 296 316 253 256 225 243 292 237 253 229 229 211 159 189 201 185 183 208 219 187 205 280 275 323 323 322 314 306 304 299 290 291 284 281 282 278 286 277 260
296 296 294 295 294 294 294 295 288 290 279 266 270 281 296 272 224 214 229 319 192 237 339 359 336 284 212 195 181 173 183 160 229 125 162 246 254 354 356 354 355 350 341 331 320 314 312 304 288 288 286 268 268 243
301 298 296 293 287 290 293 289 285 274 275 257 217 200 243 219 233 203 236 281 305 259 281 6 325 307 331 147 76 134 185 218 118 189 229 217 358 1 358 354 353 358 359 354 350 336 322 309 313 296 289 278 238 235
296 295 295 300 303 295 296 289 287 291 260 191 178 221 187 255 236 195 184 202 254 228 212 256 343 304 253 155 115 224 72 152 213 225 230 23 356 350 352 351 351 352 353 351 352 353 344 335 327 303 279 278 272 278
295 292 287 295 307 293 310 329 290 308 342 289 250 217 212 226 231 228 248 270 285 270 225 188 201 182 193 219 176 107 159 241 213 245 24 345 343 341 344 342 339 341 345 343 343 340 338 335 325 309 286 273 273 271
297 277 279 285 271 301 327 329 319 327 289 226 245 300 279 24 270 326 343 293 329 290 245 260 223 157 234 190 138 215 160 220 111 337 327 332 334 334 338 332 329 328 330 331 331 327 326 325 323 316 309 302 295 286
303 250 271 283 299 319 313 302 309 220 229 228 267 18 9 83 61 24 3 350 331 291 234 194 209 223 101 181 196 22 37 10 332 319 321 326 327 326 330 322 320 320 319 320 319 317 318 318 315 314 312 307 294 287
298 309 297 297 301 301 290 258 204 231 240 317 16 13 38 36 17 21 354 340 335 329 338 344 332 353 26 16 62 12 320 315 315 317 320 323 327 328 320 317 319 319 316 314 313 312 312 311 309 309 306 302 294 291
305 301 289 294 299 275 244 205 204 188 81 52 43 21 55 59 45 28 8 357 46 56 30 41 53 43 343 12 330 323 321 320 316 317 319 326 328 327 327 328 326 324 320 318 317 315 313 309 307 309 305 300 296 291
271 278 281 282 278 225 203 91 74 67 79 60 39 34 60 39 28 29 30 47 69 56 47 46 52 334 311 316 324 319 317 319 321 321 321 329 334 334 337 335 331 326 325 325 323 322 320 314 312 309 306 304 303 301
286 278 295 297 203 136 86 63 65 71 89 95 54 67 76 62 42 35 29 32 60 39 37 11 344 344 345 339 335 327 325 329 328 320 320 324 338 341 341 343 337 332 333 338 339 340 334 328 326 321 314 307 302 293
266 99 103 85 86 80 77 37 69 59 64 80 61 39 49 42 25 20 34 46 66 39 12 349 350 352 352 360 357 358 354 352 353 350 350 348 346 347 346 347 344 340 341 343 338 333 332 332 327 325 320 313 305 298
118 100 69 46 89 55 56 25 62 27 69 356 26 43 17 33 23 45 72 67 67 10 3 1 2 12 12 17 17 15 13 9 8 4 1 360 359 359 354 355 353 343 341 345 343 339 336 335 330 329 327 321 314 308
99 65 41 49 27 32 8 39 37 25 53 32 38 10 356 356 1 68 80 83 9 7 15 20 21 28 39 36 27 19 11 11 14 18 12 9 6 8 9 7 5 357 347 346 347 350 352 348 343 340 335 331 328 322
87 17 27 360 22 36 29 8 353 37 32 321 47 347 333 348 63 60 124 10 11 10 23 44 53 45 40 36 31 29 22 15 9 8 13 12 6 5 8 11 11 7 1 351 351 350 353 354 353 348 343 336 332 328
70 17 50 2 352 64 206 41 31 6 125 2 275 320 352 74 63 174 230 0 11 12 28 36 31 32 34 25 20 20 18 18 16 21 21 20 14 2 1 0 359 6 4 357 349 346 346 350 351 352 349 346 340 334
56 341 23 21 350 3 58 92 90 94 71 55 284 7 53 73 232 246 152 355 36 32 16 14 17 15 16 19 22 21 19 22 21 14 22 22 20 19 15 5 356 359 2 359 356 351 349 350 350 350 350 350 345 342
67 30 7 327 9 14 131 61 70 164 232 121 3 24 166 190 217 195 227 1 1 25 48 54 45 42 34 27 19 13 10 13 13 18 22 21 22 16 11 12 9 6 5 7 3 1 355 349 342 342 342 344 346 345
28 358 350 4 340 326 349 132 264 8 346 270 168 238 234 197 269 233 231 187 163 80 91 72 45 43 46 41 25 15 9 6 6 7 8 3 2 3 3 2 1 2 2 4 8 7 6 358 351 347 351 354 358 358
358 349 345 339 52 283 16 348 319 311 301 268 250 202 162 150 132 118 107 99 119 136 20 14 15 12 10 6 2 4 5 1 359 356 353 351 348 348 353 353 353 352 354 357 0 4 7 8 11 13 15 15 15 14
329 328 316 289 272 313 322 327 330 328 323 274 212 193 162 147 138 117 111 90 96 96 69 40 24 12 6 359 354 348 345 346 342 339 335 333 334 336 339 344 346 344 343 347 352 357 1 6 10 13 16 18 20 19
319 354 340 315 294 319 340 343 338 349 3 38 177 170 168 179 212 214 198 172 213 301 345 357 355 347 346 344 341 337 331 327 325 322 320 320 323 326 327 331 333 336 337 336 340 347 353 357 3 8 12 15 16 15
312 335 325 302 305 337 348 348 9 7 15 31 38 202 198 218 254 195 196 221 292 357 358 347 344 342 338 332 328 325 320 315 313 311 308 304 306 314 319 324 329 329 330 329 328 332 338 344 351 357 1 6 10 11